Погода в Корзине

Россия / Ивановская область     56°31′06″N   41°27′48″E
темп.,
°C
ветер,
м/с
пор.,
м/с
влажн.,
%
обл.,
%
осадки,
мм/ч
давл.,
гПа
погр.,
м
18 апреля, вс
вс1800:00+5всв412710 0.0 1023330
03:00+4всв413800 0.0 1024347
06:00+3всв412840 0.0 1024306
09:00+9всв610575 0.0 1023855
12:00+13всв68417 0.0 10231557
15:00+14всв684069 0.0 10232084
18:00+11всв71055100 0.0 10231037
21:00+6всв61282100 0.0 1025630
19 апреля, пн
пн1900:00+4всв6118197 0.0 1026573
03:00+2всв51073100 0.0 1027486
06:00+1всв51174100 0.0 1027506
09:00+3всв6961100 0.0 1028714
12:00+7в7952100 0.0 10271308
15:00+8в6940100 0.0 10271716
18:00+7всв61043100 0.0 10271490
21:00+5всв61246100 0.0 1027720
20 апреля, вт
вт2000:00+3в51253100 0.0 1027816
03:00+2в51256100 0.0 1027702
06:00+2в51260100 0.1 1027621
09:00+5вюв7125494 0.1 1026823
12:00+8вюв7115869 0.0 10251152
15:00+9вюв6115399 0.0 10241346
18:00+10вюв71348100 0.0 10211285
21:00+7вюв71549100 0.0 1020901
21 апреля, ср
ср2100:00+6вюв81647100 0.0 1017941
03:00+4вюв91867100 0.9 10141006
06:00+2вюв81897100 5.4 1012968
09:00+2вюв81896100 11.3 1011848
12:00+4юв81791100 0.3 1009985
15:00+5юв81791100 0.4 10081036
18:00+6ююв71493100 0.3 10081089
21:00+6ю71482100 0.4 10111219
22 апреля, чт
чт2200:00+5ююз71385100 0.1 10131176
03:00+5ююз61286100 0.2 1015783
06:00+5ююз51186100 0.0 1017479
09:00+7ююз5976100 0.1 10191032
12:00+10ююз585593 0.1 10191661
15:00+11ююз585475 0.3 10201590
18:00+11ююз485770 0.1 1021463
21:00+7ю387285 0.1 1022185